Regional Weather Roundup
Issued by NWS

Home | Current Version | Previous Version | Graphics & Text | Print | Product List | Glossary On
Versions: 1 2 3 4 5 6 7 8 9 10 11 12 13 14 15 16 17 18 19 20 21 22 23 24 25 26 27 28 29 30 31 32 33 34 35 36 37 38 39 40 41 42 43 44 45 46 47 48 49 50
000
ASUS43 KIND 131559
RWRIN

WEATHER ROUNDUP FOR INDIANA
NATIONAL WEATHER SERVICE INDIANAPOLIS IN
1200 PM EDT SUN JUL 13 2014

NOTE: "FAIR" INDICATES FEW OR NO CLOUDS BELOW 12,000 FEET WITH NO
SIGNIFICANT WEATHER AND/OR OBSTRUCTIONS TO VISIBILITY.

* - STATION DOES NOT REPORT WEATHER SUCH AS PRECIPITATION OR FOG.

+ - STATION NOT QUALITY CONTROLLED BY THE NATIONAL WEATHER SERVICE.
    USE DATA WITH CAUTION...ESPECIALLY DEWPOINT AND RELATIVE
    HUMIDITY OBSERVATIONS.

INZ001>003-010>013-019-020-131700-
NORTHWEST INDIANA

CITY           SKY/WX    TMP DP  RH WIND       PRES   REMARKS
KNOX *+        PTSUNNY   76  67  73 NW7       29.94S
MONTICELLO +   PTSUNNY   76  71  82 N12       29.94S
VALPARAISO     PTSUNNY   74  65  73 NW7       29.95F

$$

LMZ046-743>745-131700-
SOUTHERN LAKE MICHIGAN

STATION/POSITION TIME  TEMP WIND        PRES
                       AIR  DIR/SP/G
                 (UTC) (F)  (DEG/KT/KT) (MB)
MICHIGAN CITY    1500   71  260/  8/  9   N/A

$$

INZ004-005-014>016-021>024-131700-
NORTH CENTRAL INDIANA

CITY           SKY/WX    TMP DP  RH WIND       PRES   REMARKS
GOSHEN         MOSUNNY   76  65  68 W7        29.94R
PERU/GRISSOM   PTSUNNY   79  75  89 NW13      29.94R
SOUTH BEND     PTSUNNY   74  63  68 NW8       29.96R
WARSAW +       PTSUNNY   77  68  73 NW10      29.94S

$$

INZ006>009-017-018-025>027-131700-
NORTHEAST INDIANA

CITY           SKY/WX    TMP DP  RH WIND       PRES   REMARKS
ANGOLA *+      SUNNY     77  66  69 N7        29.93R
FORT WAYNE     PTSUNNY   81  69  67 W14G20    29.94R

$$

INZ028-029-035-036-043>045-051>053-131700-
WEST CENTRAL INDIANA

CITY           SKY/WX    TMP DP  RH WIND       PRES   REMARKS
GREENCASTLE +  CLOUDY    77  70  78 W6        29.98S
LAFAYETTE      CLOUDY    76  69  79 NW13      29.95R
TERRE HAUTE    CLOUDY    80  70  71 W8        29.97R

$$

INZ030>032-037>040-046>048-054>057-064-065-131700-
CENTRAL INDIANA

CITY           SKY/WX    TMP DP  RH WIND       PRES   REMARKS
COLUMBUS       PTSUNNY   82  75  78 W8        29.99R
INDIANAPOLIS   CLOUDY    81  69  67 W10       29.96S
-EAGLE CREEK   PTSUNNY   79  69  71 W10       29.96S
KOKOMO *+      CLOUDY    77  70  78 NW12      29.95R
MT COMFORT *+  PTSUNNY   81  72  74 W9        29.97S
SHELBYVILLE    PTSUNNY   82  71  69 VRB5      29.97F

$$

INZ033-034-041-042-049-050-058-059-131700-
EAST CENTRAL INDIANA

CITY           SKY/WX    TMP DP  RH WIND       PRES   REMARKS
MUNCIE         PTSUNNY   80  68  66 W17       29.96S

$$

INZ060-061-067>069-081>083-085>088-131700-
SOUTHWEST INDIANA

CITY           SKY/WX    TMP DP  RH WIND       PRES   REMARKS
EVANSVILLE     MOSUNNY   86  74  67 SW12      30.01S
HUNTINGBURG *+ SUNNY     86  73  66 SW13      30.00F

$$

INZ062-063-066-070>080-084-089>092-131700-
SOUTH CENTRAL AND SOUTHEAST INDIANA

CITY           SKY/WX    TMP DP  RH WIND       PRES   REMARKS
BLOOMINGTON    PTSUNNY   83  73  72 VRB5      29.99R

$$




USA.gov is the U.S. government's official web portal to all federal, state and local government web resources and services.